Location: *
(48.8667°N, 2.3331°E)
Time: 22:32:55
(UTC+00:00)

Cosmos 1934 Rocket - Pass Details

Date: 09 April 2020
Orbit: 937 x 1000 km, 83.0° (Epoch: 03 June)

Event Time Altitude Azimuth Distance (km) Brightness Sun altitude
Rises 22:02:18 0° 349° (N) 3,698 8.1 -28.2°
Reaches altitude 10° 22:04:51 10° 348° (NNW) 2,737 7.2 -28.5°
Maximum altitude 22:11:06 77° 264° (W) 996 3.9 -29.0°
Enters shadow 22:11:29 74° 228° (SW) 1,007 3.9 -29.0°
